User: anonymous   Login
Location: Unspecified
(0.0000°N, 0.0000°E)
Time: 12:52:19
(UTC+00:00)
Language:

Tiangong - Orbit

View from above orbital plane
View from above orbital plane
View from above satellite
View from above satellite

Ground track
Ground track

The orbit data is extracted from the following two-line orbital elements,

1 48274U 21035A   24147.17714756  .00045269  00000-0  43967-3 0  9990
2 48274  41.4667 217.3898 0002354  73.5882 286.5217 15.65503093175652
Epoch (UTC): 26 May 2024 04:15:05
Eccentricity: 0.0002354
inclination: 41.4667°
perigee height: 370 km
apogee height: 373 km
right ascension of ascending node: 217.3898°
argument of perigee: 73.5882°
revolutions per day: 15.65503093
mean anomaly at epoch: 286.5217°
orbit number at epoch: 17565

The dashed part of the orbit path shows where the satellite is in the earth's shadow,  

DLR